EHI
0 0 0 0 0 0 0 0 0 0 0 0 0 0 0 0 0 0 0 0 0 0 0 0 0 0 0 0 0 0 0 0 0 0 0 0 0 0
0 0 0 0 0 0 0 0 0 0 0 0 0 0 0 0 0 0 0 0 0 0 0 0 0 0 0 0 0 0 0 0 0 0 0 0 0 0
0 0 0 0 0 0 0 0 0 0 0 0 0 0 0 0 0 0 0 0 0 0 0 0 0 0 0 0 0 0 0 0 0 0 0 0 0 0
0 0 0 0 0 0 0 0 0 0 0 0 0 0 0 0 0 0 0 0 0 0 0 0 0 0 0 0 0 0 0 0 0 0 0 0 0 0
0 0 0 0 0 0 0 0 0 0 0 0 0 0 0 0 0 0 0 0 0 0 0 0 0 0 0 0 0 0 0 0 0 0 0 0 0 0
0 0 0 0 0 0 0 0 0 0 0 0 0 0 0 0 0 0 0 0 0 0 0 0 0 0 0 0 0 0 0 0 0 0 0 0 0 0
0 0 0 0 0 0 0 0 0 0 0 0 0 0 0 0 0 0 0 0 0 0 0 0 0 0 0 0 0 0 0 0 0 0 0 0 0 0
0 0 0 0 0 0 0 0 0 0 0 0 0 0 0 0 0 0 0 0 0 0 0 0 0 0 0 0 0 0 0 0 0 0 0 0 0 0
0 0 0 0 0 0 0 0 0 0 0 0 0 0 0 0 0 0 0 0 0 0 0 0 0 0 0 0 0 0 0 0 0 0 0 0 0 0
0 0 0 0 0 0 0 0 0 0 0 0 0 0 0 0 0 0 0 0 0 0 0 0 0 0 0 0 0 0 0 0 0 0 0 0 0 0
0 0 0 0 0 0 0 0 0 0 0 0 0 0 0 0 0 0 0 0 0 0 0 0 0 0 0 0 0 0 0 0 0 0 0 0 0 0
0 0 0 0 0 0 0 0 0 0 0 0 0 0 0 0 0 0 0 0 0 0 0 0 0 0 0 0 0 0 0 0 0 0 0 0 0 0
0 0 0 0 0 0 0 0 0 0 0 0 0 0 0 0 0 0 0 0 0 0 0 0 0 0 0 0 0 0 0 0 0 0 0 0 0 0
0 0 0 0 0 0 0 0 0 0 0 0 0 0 0 0 0 0 0 0 0 0 0 0 0 0 0 0 0 0 0 0 0 0 0 0 0 0
0 0 0 0 0 0 0 0 0 0 0 0 0 0 0 0 0 0 0 0 0 0 0 0 0 0 0 0 0 0 0 0 0 0 0 0 0 0
0 0 0 0 0 0 0 0 0 0 0 0 0 0 0 0 0 0 0 0 0 0 0 0 0 0 0 0 0 0 0 0 0 0 0 0 0 0
0 0 0 0 0 0 0 0 0 0 0 0 0 0 0 0 0 0 0 0 0 0 0 0 0 0 0 0 0 0 0 0 0 0 0 0 0 0
0 0 0 0 0 0 0 0 0 0 0 0 0 0 0 0 0 0 0 0 0 0 0 0 0 0 0 0 0 0 0 0 0 0 0 0 0 0
0 0 0 0 0 0 0 0 0 0 0 0 0 0 0 0 0 0 0 0 0 0 0 0 0 0 0 0 0 0 0 0 0 0 0 0 0 0
0 0 0 0 0 0 0 0 0 0 0 0 0 0 0 0 0 0 0 0 0 0 0 0 0 0 0 0 0 0 0 0 0 0 0 0 0 0
0 0 0 0 0 0 0 0 0 0 0 0 0 0 0 0 0 0 0 0 0 0 0 0 0 0 0 0 0 0 0 0 0 0 0 0 0 0
0 0 0 0 0 0 0 0 0 0 0 0 0 0 0 0 0 0 0 0 0 0 0 0 0 0 0 0 0 0 0 0 0 0 0 0 0 0
0 0 0 0 0 0 0 0 0 0 0 0 0 0 0 0 0 0 0 0 0 0 0 0 0 0 0 0 0 0 0 0 0 0 0 0 0 0
Wind_Speed
14 14 13 12 12 12 12 11 11 11 12 13 9 9 8 7 8 10 11 12 14 15 17 18 17 17 17 19 19 18 19 18 16 15 16 16 14 13
11 11 11 10 10 10 11 11 11 11 11 8 7 7 9 6 9 9 8 11 11 12 13 15 17 19 21 22 21 21 20 19 18 18 18 17 16 14
13 11 9 8 7 8 9 10 10 9 11 8 5 5 9 9 8 7 8 8 9 14 16 18 19 20 21 21 21 21 20 19 18 19 19 17 16 14
14 13 12 10 10 7 7 10 10 10 10 11 7 7 9 10 10 9 8 7 8 14 18 18 18 19 19 19 18 17 17 17 17 17 18 17 16 14
14 14 13 13 12 8 8 8 8 8 9 9 8 7 5 7 10 10 10 8 8 11 16 18 19 19 19 20 19 17 16 16 15 15 15 15 14 13
13 13 13 13 13 11 6 6 6 7 8 8 7 7 6 8 10 11 10 8 9 9 10 11 15 16 17 19 19 18 17 16 16 15 14 12 12 12
12 12 12 17 20 15 9 6 3 2 3 5 7 7 7 9 10 9 11 10 8 8 10 10 11 10 10 14 15 15 16 16 16 15 15 14 12 12
12 12 13 15 19 21 24 22 18 9 5 2 3 6 6 6 6 9 11 12 7 5 9 8 9 9 9 9 13 15 16 16 16 16 16 15 14 12
12 11 10 13 15 13 18 22 24 28 22 10 10 7 6 6 3 8 9 10 7 4 8 7 6 7 6 8 16 16 17 17 17 17 17 16 14 12
11 12 12 13 14 14 13 14 16 19 20 15 13 13 12 10 8 5 8 10 8 6 4 6 5 7 8 9 15 17 18 18 18 17 16 15 13 12
10 11 13 14 20 19 14 13 14 14 19 25 26 25 28 28 17 6 4 7 6 4 5 4 5 5 6 8 10 16 17 17 17 16 15 14 11 9
8 10 17 19 22 21 14 13 14 13 13 15 18 20 20 22 25 14 8 4 5 4 4 3 5 5 5 4 5 6 9 14 15 14 12 10 6 3
6 8 12 22 23 23 18 14 15 12 11 12 12 13 13 13 14 14 13 9 7 5 4 3 4 4 6 5 3 4 4 4 5 7 9 9 7 3
6 7 11 21 22 23 17 19 19 14 9 10 11 11 11 11 11 13 14 14 13 11 9 6 3 4 6 6 5 4 3 3 3 3 4 5 5 5
9 16 17 19 17 15 20 21 16 11 10 10 10 10 9 9 8 8 10 12 13 13 12 12 8 5 4 6 7 6 5 4 4 3 2 2 1 1
10 12 16 18 15 15 15 13 11 11 10 10 9 8 8 8 8 7 6 6 8 9 11 12 10 8 7 7 6 6 5 5 4 2 1 0 1 1
7 7 8 8 9 9 9 10 9 9 10 9 9 9 9 9 9 8 8 7 7 7 7 7 7 7 8 5 5 5 4 4 3 2 1 2 2 2
9 8 8 8 8 8 8 8 8 9 8 8 8 8 8 8 8 7 7 7 7 7 6 6 4 3 4 7 9 3 4 3 2 1 2 3 3 2
9 8 7 7 7 6 6 6 6 7 6 7 7 7 7 6 6 6 6 6 6 6 6 6 5 2 2 4 4 7 3 2 1 1 2 3 5 5
6 6 6 6 6 5 5 5 5 5 5 5 5 5 5 5 5 5 5 6 5 4 4 5 6 6 5 3 2 2 2 3 2 3 3 4 5 8
5 5 5 5 5 4 4 4 4 4 4 4 4 4 4 4 4 4 4 5 4 3 3 4 4 5 3 2 2 1 0 1 4 4 5 5 5 4
5 5 5 5 4 4 4 4 4 3 3 2 3 2 2 2 2 3 3 2 2 2 3 2 2 2 2 2 3 3 3 4 5 9 11 10 5 4
5 5 5 4 4 4 3 3 4 3 3 3 2 2 2 2 2 2 2 2 2 2 3 3 2 2 2 3 3 4 6 6 5 5 5 8 13 16
Wind_Direction
281 266 257 254 252 253 251 248 250 247 241 237 222 209 205 210 204 210 219 200 204 209 211 208 201 189 175 163 160 153 140 138 138 137 135 133 130 125
298 279 266 258 254 251 248 244 241 246 251 241 229 212 195 197 196 206 194 156 161 164 166 165 159 151 145 141 140 139 140 141 140 139 137 132 128 123
327 322 317 302 282 264 253 245 237 234 242 243 230 212 197 188 182 184 157 147 137 131 129 126 126 127 129 132 136 140 142 141 140 141 138 134 130 126
340 344 346 336 319 297 274 253 241 231 232 229 206 201 199 185 174 164 147 135 132 131 126 123 122 123 125 127 131 136 137 136 138 139 138 135 132 127
345 348 347 345 338 319 297 269 248 234 226 222 201 188 182 171 163 151 139 130 128 131 129 132 133 136 139 139 139 138 136 135 134 133 133 131 128 122
349 350 349 350 344 333 316 299 267 234 219 211 193 177 166 165 162 149 140 136 137 140 134 134 136 138 144 146 144 143 140 137 134 130 127 123 120 118
351 353 353 360 359 4 7 355 325 276 222 194 181 167 162 166 167 158 143 134 130 143 143 145 144 143 140 139 139 141 138 135 134 134 131 124 118 115
352 355 359 4 6 11 22 32 35 31 13 24 124 130 126 134 144 149 142 144 136 137 132 130 145 145 150 153 146 142 138 135 134 133 131 125 119 114
357 1 8 9 16 11 20 28 32 37 39 43 52 47 54 35 94 150 160 149 117 114 127 105 105 110 106 113 131 134 132 130 129 129 126 122 117 112
4 8 18 22 25 26 27 33 34 35 37 42 48 47 47 38 30 53 99 96 84 42 61 108 90 77 71 81 102 115 119 120 120 119 117 114 111 108
10 19 30 34 34 35 32 35 36 32 34 43 46 45 45 45 39 45 92 124 105 56 27 92 107 86 61 50 70 96 106 111 113 113 112 112 115 121
13 28 42 44 39 40 37 36 37 32 33 35 38 38 40 40 40 36 28 74 96 87 30 79 114 114 93 52 39 57 85 95 98 101 103 105 113 136
18 33 45 49 45 41 40 39 40 40 41 43 43 41 42 41 41 41 39 44 64 69 34 69 103 102 111 117 79 57 76 93 97 98 93 87 73 52
27 40 49 51 48 45 42 38 38 38 40 45 46 42 40 42 46 49 50 52 52 51 34 42 82 115 125 125 129 128 114 118 124 123 117 113 100 82
50 63 57 51 47 42 39 38 35 33 36 42 44 42 40 40 44 54 61 61 56 49 40 36 46 66 82 119 131 147 147 146 141 131 122 105 72 35
38 44 50 52 48 42 39 37 35 35 35 37 40 39 38 41 40 35 45 53 61 56 48 44 41 53 76 92 112 131 140 140 140 109 71 309 260 260
45 42 39 37 38 37 37 36 35 33 35 33 33 35 36 38 38 33 40 55 59 58 50 47 55 58 54 69 112 121 129 120 103 64 338 294 269 258
44 42 39 36 34 31 30 32 32 32 31 32 33 33 33 34 37 38 43 50 57 52 42 33 58 100 92 58 26 95 110 108 94 3 305 291 281 257
44 41 37 32 28 26 26 26 28 28 25 29 32 28 28 31 34 36 38 48 54 53 43 31 24 23 137 122 70 27 61 74 329 279 288 292 294 300
35 33 30 27 23 18 16 16 15 17 20 20 26 26 21 22 29 31 34 31 38 45 52 47 38 27 28 39 54 98 25 336 324 313 315 308 291 281
17 17 15 12 9 6 3 1 1 5 10 3 13 16 13 14 21 21 26 27 20 28 34 43 37 5 347 316 272 259 75 308 307 305 313 304 297 283
353 355 357 355 349 347 342 338 337 342 351 343 352 354 351 351 356 353 355 354 355 359 349 348 342 321 313 313 311 311 303 305 275 266 260 258 278 294
333 336 337 338 334 328 321 315 309 313 319 318 311 304 297 292 296 298 295 290 296 303 303 306 301 284 285 285 285 285 285 286 286 285 270 253 255 263